Location: Ritzville
(47.1276°N, 118.3800°W)
Time: 15:24:46
(UTC+00:00)

N. Korean satellite - Visible Passes

Search period start: 16 August 2022 00:00
Search period end: 26 August 2022 00:00
Orbit: 433 x 470 km, 97.3° (Epoch: 15 August)

Date Brightness Start Highest point End Pass type
(mag) Time Alt. Az. Time Alt. Az. Time Alt. Az.
18 Aug 9.6 12:09:54 10° ENE 12:11:47 14° E 12:13:40 10° ESE visible
21 Aug 10.2 12:00:10 10° E 12:00:34 10° E 12:00:57 10° E visible
23 Aug 9.4 12:21:38 10° NE 12:24:11 19° E 12:26:42 10° SE visible
